period_start,C,m1,H,J0,J1,J2,J3,J4,J5,JA,JB,JC,JD,JJ,JK,JN,#
2018-05-23 00:02:01,0.06,0.70,0.00,30.95,33.74,36.24,13.41,46.42,1014.68,1998.99,3094.84,2854.36,3274.45,599.79,579.14,22.78,0000 0000 0000 0000 000000
2018-05-23 00:07:02,0.02,0.70,0.00,30.99,33.78,36.27,13.48,46.42,1014.69,1998.97,3094.01,2853.86,3273.77,600.04,579.18,22.83,0000 0000 0000 0000 000000
2018-05-23 00:12:03,0.03,0.70,0.00,31.03,33.82,36.31,13.45,46.36,1014.68,1998.77,3093.22,2853.07,3272.93,600.16,579.35,22.88,0000 0000 0000 0000 000000
2018-05-23 00:17:04,0.03,0.70,0.00,31.09,33.86,36.35,13.43,46.38,1014.69,1998.46,3092.19,2852.37,3272.09,599.98,579.09,22.93,0000 0000 0000 0000 000000
2018-05-23 00:22:06,0.02,0.70,0.00,31.16,33.91,36.40,13.49,46.48,1014.72,1998.06,3091.21,2851.73,3271.21,599.80,578.76,22.98,0000 0000 0000 0000 000000
2018-05-23 00:27:07,0.04,0.70,0.00,31.19,33.95,36.42,13.46,46.46,1014.72,1998.00,3090.32,2850.97,3270.40,600.01,579.02,23.03,0000 0000 0000 0000 000000
2018-05-23 00:32:08,0.05,0.71,0.00,31.23,33.99,36.47,13.42,46.43,1014.83,1998.00,3089.44,2850.17,3269.58,599.82,578.67,23.08,0000 0000 0000 0000 000000
2018-05-23 00:37:09,0.04,0.71,0.00,31.27,34.03,36.51,13.43,46.37,1014.83,1997.95,3088.57,2849.60,3268.73,599.74,578.57,23.13,0000 0000 0000 0000 000000
2018-05-23 00:42:10,0.02,0.71,0.00,31.34,34.08,36.54,13.49,46.55,1014.85,1997.77,3087.61,2848.96,3267.91,600.01,578.70,23.18,0000 0000 0000 0000 000000
2018-05-23 00:47:12,-0.01,0.71,0.00,31.39,34.12,36.59,13.44,46.57,1014.84,1997.15,3086.72,2848.10,3267.02,599.90,578.57,23.24,0000 0000 0000 0000 000000
2018-05-23 00:52:13,0.04,0.71,0.00,31.42,34.16,36.62,13.38,46.33,1014.97,1997.01,3085.97,2847.49,3266.16,599.92,578.58,23.29,0000 0000 0000 0000 000000
2018-05-23 00:57:15,0.04,0.71,0.00,31.47,34.21,36.67,13.40,46.40,1015.12,1997.00,3085.05,2846.82,3265.37,600.02,578.73,23.34,0000 0000 0000 0000 000000
2018-05-23 01:02:16,0.04,0.72,0.00,31.52,34.25,36.71,13.44,46.45,1015.15,1996.98,3084.15,2846.05,3264.65,599.73,578.22,23.39,0000 0000 0000 0000 000000
2018-05-23 01:07:18,0.02,0.72,0.00,31.56,34.29,36.75,13.45,46.46,1015.15,1996.80,3083.36,2845.40,3263.91,600.07,578.52,23.44,0000 0000 0000 0000 000000
2018-05-23 01:12:19,-0.01,0.72,0.00,31.61,34.34,36.79,13.49,46.36,1015.15,1996.16,3082.34,2844.73,3263.05,600.09,578.49,23.49,0000 0000 0000 0000 000000
2018-05-23 01:17:20,0.03,0.72,0.00,31.68,34.38,36.82,13.44,46.45,1015.15,1996.01,3081.44,2844.00,3262.24,600.03,578.25,23.54,0000 0000 0000 0000 000000
2018-05-23 01:22:22,0.06,0.72,0.00,31.75,34.42,36.87,13.46,46.32,1015.15,1996.00,3080.51,2843.18,3261.37,600.39,578.50,23.59,0000 0000 0000 0000 000000
2018-05-23 01:27:23,0.06,0.72,0.00,31.79,34.47,36.91,13.36,46.40,1015.15,1995.99,3079.26,2842.38,3260.45,599.83,577.86,23.64,0000 0000 0000 0000 000000
2018-05-23 01:32:24,0.03,0.73,0.00,31.87,34.51,36.97,13.44,46.44,1015.15,1995.74,3078.10,2841.54,3259.43,600.10,578.07,23.69,0000 0000 0000 0000 000000
2018-05-23 01:37:25,0.01,0.73,0.00,31.91,34.56,37.01,13.40,46.25,1015.15,1995.13,3076.94,2840.70,3258.35,600.11,577.89,23.74,0000 0000 0000 0000 000000
2018-05-23 01:42:27,0.04,0.73,0.00,31.98,34.60,37.06,13.40,46.34,1015.16,1995.00,3075.88,2839.95,3257.48,600.28,577.78,23.79,0000 0000 0000 0000 000000
2018-05-23 01:47:28,0.06,0.73,0.00,32.03,34.64,37.10,13.41,46.23,1015.16,1994.99,3074.83,2839.08,3256.58,599.98,577.64,23.84,0000 0000 0000 0000 000000
2018-05-23 01:52:29,0.05,0.73,0.00,32.12,34.69,37.16,13.41,46.27,1015.16,1994.93,3073.66,2838.20,3255.64,600.05,577.41,23.89,0000 0000 0000 0000 000000
2018-05-23 01:57:30,-0.01,0.74,0.00,32.17,34.74,37.19,13.41,46.20,1015.25,1994.41,3072.64,2837.46,3254.64,599.78,577.15,23.94,0000 0000 0000 0000 000000
2018-05-23 02:02:31,0.04,0.74,0.00,32.23,34.79,37.24,13.41,46.32,1015.27,1994.06,3071.50,2836.73,3253.73,599.78,577.04,23.99,0000 0000 0000 0000 000000
2018-05-23 02:07:32,0.04,0.74,0.00,32.28,34.84,37.29,13.39,46.27,1015.47,1994.00,3070.58,2835.89,3252.70,599.98,577.30,24.04,0000 0000 0000 0000 000000
2018-05-23 02:12:34,0.05,0.74,0.00,32.38,34.89,37.34,13.46,46.36,1015.62,1993.96,3069.30,2834.96,3251.71,600.07,577.26,24.09,0000 0000 0000 0000 000000
2018-05-23 02:17:35,0.02,0.74,0.00,32.42,34.94,37.38,13.39,46.27,1015.63,1993.65,3067.95,2834.06,3250.61,600.14,577.23,24.14,0000 0000 0000 0000 000000
2018-05-23 02:22:36,0.04,0.75,0.00,32.48,34.99,37.44,13.37,46.27,1015.64,1993.23,3066.78,2833.21,3249.63,599.89,576.90,24.19,0000 0000 0000 0000 000000
2018-05-23 02:27:37,0.05,0.75,0.00,32.53,35.04,37.50,13.37,46.33,1015.64,1993.01,3065.60,2832.25,3248.60,599.97,576.99,24.24,0000 0000 0000 0000 000000
2018-05-23 02:32:38,0.06,0.75,0.00,32.59,35.09,37.55,13.44,46.42,1015.63,1993.00,3064.41,2831.46,3247.59,600.10,576.83,24.29,0000 0000 0000 0000 000000
2018-05-23 02:37:39,0.03,0.75,0.00,32.67,35.14,37.59,13.49,46.25,1015.63,1992.81,3063.17,2830.54,3246.51,600.96,577.37,24.34,0000 0000 0000 0000 000000
2018-05-23 02:42:40,-0.01,0.75,0.00,32.76,35.20,37.64,13.35,46.28,1015.60,1992.16,3062.31,2829.82,3245.66,599.54,576.01,24.39,0000 0000 0000 0000 000000
2018-05-23 02:47:42,0.04,0.75,0.00,32.83,35.25,37.70,13.42,46.23,1015.51,1992.00,3061.19,2829.01,3244.67,600.26,576.52,24.44,0000 0000 0000 0000 000000
2018-05-23 02:52:43,0.06,0.76,0.00,32.86,35.30,37.75,13.40,46.17,1015.58,1991.99,3060.00,2828.17,3243.68,600.09,576.34,24.49,0000 0000 0000 0000 000000
2018-05-23 02:57:45,0.03,0.76,0.00,32.91,35.35,37.81,13.37,46.18,1015.61,1991.91,3059.05,2827.39,3242.86,599.84,575.95,24.54,0000 0000 0000 0000 000000
2018-05-23 03:02:46,-0.01,0.76,0.00,32.98,35.40,37.85,13.34,46.27,1015.62,1991.36,3058.12,2826.69,3241.92,599.79,575.98,24.59,0000 0000 0000 0000 000000
2018-05-23 03:07:47,0.02,0.76,0.00,33.03,35.45,37.91,13.37,46.24,1015.62,1991.03,3057.16,2825.93,3241.01,600.35,576.31,24.64,0000 0000 0000 0000 000000
2018-05-23 03:12:49,0.05,0.76,0.00,33.09,35.50,37.97,13.36,46.15,1015.64,1991.00,3056.17,2825.09,3240.08,599.93,575.90,24.69,0000 0000 0000 0000 000000
2018-05-23 03:17:50,0.06,0.77,0.00,33.16,35.55,38.01,13.36,46.17,1015.64,1990.89,3054.74,2824.19,3238.95,599.82,575.44,24.74,0000 0000 0000 0000 000000
2018-05-23 03:22:51,0.01,0.77,0.00,33.22,35.61,38.06,13.36,45.98,1015.64,1990.29,3053.06,2823.06,3237.65,600.43,575.98,24.79,0000 0000 0000 0000 000000
2018-05-23 03:27:52,0.06,0.77,0.00,33.34,35.66,38.12,13.29,46.08,1015.64,1990.02,3051.54,2822.09,3236.51,599.60,575.16,24.84,0000 0000 0000 0000 000000
2018-05-23 03:32:53,0.06,0.77,0.00,33.38,35.72,38.17,13.35,46.20,1015.64,1990.00,3050.34,2821.14,3235.54,599.95,575.10,24.89,0000 0000 0000 0000 000000
2018-05-23 03:37:55,0.10,0.78,0.00,33.44,35.77,38.23,13.39,46.18,1015.64,1989.96,3048.30,2819.82,3233.93,600.26,575.46,24.94,0000 0000 0000 0000 000000
2018-05-23 03:42:56,0.06,0.78,0.00,33.48,35.82,38.29,13.32,46.23,1015.64,1989.60,3045.86,2818.30,3232.15,599.93,574.99,24.99,0000 0000 0000 0000 000000
2018-05-23 03:47:57,0.06,0.78,0.00,33.51,35.87,38.34,13.39,46.17,1015.64,1989.05,3043.90,2816.91,3230.53,600.39,575.34,25.04,0000 0000 0000 0000 000000
2018-05-23 03:52:59,0.10,0.79,0.00,33.57,35.93,38.38,13.37,46.20,1015.63,1989.00,3041.84,2815.61,3228.95,599.89,574.78,25.09,0000 0000 0000 0000 000000
2018-05-23 03:58:00,0.08,0.79,0.00,33.62,35.98,38.43,13.36,46.17,1015.64,1988.94,3040.12,2814.45,3227.54,599.96,574.74,25.14,0000 0000 0000 0000 000000
2018-05-23 04:03:01,0.05,0.80,0.00,33.65,36.03,38.48,13.35,46.12,1015.64,1988.48,3037.75,2813.03,3225.87,600.17,575.07,25.19,0000 0000 0000 0000 000000
2018-05-23 04:08:03,0.07,0.80,0.00,33.63,36.08,38.54,13.32,46.12,1015.64,1988.05,3035.61,2811.68,3224.40,599.83,574.68,25.24,0000 0000 0000 0000 000000
2018-05-23 04:13:04,0.17,0.81,0.00,33.69,36.13,38.58,13.33,46.19,1015.64,1988.00,3032.73,2809.88,3222.24,599.85,574.58,25.29,0000 0000 0000 0000 000000
2018-05-23 04:18:05,0.17,0.82,0.00,33.79,36.18,38.66,13.26,46.06,1015.65,1987.97,3028.32,2807.23,3219.24,599.65,574.21,25.34,0000 0000 0000 0000 000000
2018-05-23 04:23:06,0.03,0.82,0.00,33.85,36.23,38.70,13.29,46.15,1015.68,1987.49,3026.46,2805.77,3217.63,599.79,574.26,25.39,0000 0000 0000 0000 000000
2018-05-23 04:28:07,0.04,0.82,0.00,33.90,36.28,38.77,13.32,46.21,1015.71,1987.01,3025.44,2804.75,3216.41,599.70,574.01,25.44,0000 0000 0000 0000 000000
2018-05-23 04:33:08,0.07,0.83,0.00,33.86,36.33,38.80,13.31,46.09,1015.92,1987.00,3023.98,2803.80,3215.32,600.07,574.68,25.49,0000 0000 0000 0000 000000
2018-05-23 04:38:10,0.10,0.83,0.00,33.87,36.37,38.84,13.30,46.06,1016.02,1986.97,3021.80,2802.49,3213.78,599.76,574.35,25.54,0000 0000 0000 0000 000000
2018-05-23 04:43:11,0.00,0.83,0.00,33.96,36.42,38.90,13.29,46.13,1015.94,1986.36,3020.03,2801.16,3212.29,599.77,574.23,25.59,0000 0000 0000 0000 000000
2018-05-23 04:48:12,0.06,0.83,0.00,34.02,36.47,38.94,13.28,46.05,1015.95,1986.03,3018.62,2800.18,3211.06,600.11,574.42,25.64,0000 0000 0000 0000 000000
2018-05-23 04:53:14,0.13,0.84,0.00,34.03,36.52,38.99,13.34,45.87,1016.00,1986.00,3016.42,2798.75,3209.42,600.12,574.39,25.69,0000 0000 0000 0000 000000
2018-05-23 04:58:15,0.11,0.85,0.00,34.01,36.56,39.03,13.28,45.85,1015.97,1985.96,3013.81,2796.99,3207.41,599.84,574.18,25.74,0000 0000 0000 0000 000000
2018-05-23 05:03:16,0.06,0.85,0.00,34.07,36.60,39.08,13.30,45.90,1015.95,1985.65,3011.94,2795.66,3205.88,599.86,573.89,25.79,0000 0000 0000 0000 000000
2018-05-23 05:08:17,0.08,0.85,0.00,34.15,36.65,39.12,13.32,45.93,1015.94,1985.20,3009.43,2794.11,3204.15,599.81,573.72,25.84,0000 0000 0000 0000 000000
2018-05-23 05:13:19,0.10,0.86,0.00,34.19,36.69,39.18,13.28,45.92,1015.94,1985.02,3007.21,2792.56,3202.34,599.82,573.76,25.89,0000 0000 0000 0000 000000
2018-05-23 05:18:20,0.10,0.86,0.00,34.17,36.74,39.20,13.33,45.84,1015.84,1985.00,3005.13,2791.04,3200.58,599.86,573.75,25.94,0000 0000 0000 0000 000000
2018-05-23 05:23:21,0.10,0.87,0.00,34.18,36.78,39.25,13.37,46.08,1015.80,1984.98,3003.12,2789.69,3199.05,600.23,574.07,26.00,0000 0000 0000 0000 000000
2018-05-23 05:28:22,0.05,0.87,0.00,34.23,36.82,39.29,13.36,46.05,1015.86,1984.60,3001.16,2788.31,3197.52,600.01,573.87,26.05,0000 0000 0000 0000 000000
2018-05-23 05:33:23,0.04,0.87,0.00,34.27,36.87,39.35,13.24,45.92,1015.89,1984.04,2999.37,2786.96,3196.01,600.00,573.80,26.10,0000 0000 0000 0000 000000
2018-05-23 05:38:25,0.10,0.88,0.00,34.27,36.91,39.39,13.28,45.92,1015.97,1984.00,2997.44,2785.66,3194.54,599.98,573.86,26.15,0000 0000 0000 0000 000000
2018-05-23 05:43:26,0.05,0.88,0.00,34.29,36.95,39.42,13.30,45.77,1016.08,1983.99,2996.25,2784.73,3193.37,600.17,573.99,26.20,0000 0000 0000 0000 000000
2018-05-23 05:48:27,0.08,0.89,0.00,34.33,36.99,39.46,13.34,46.15,1016.12,1983.93,2994.76,2783.72,3192.29,600.07,573.85,26.25,0000 0000 0000 0000 000000
2018-05-23 05:53:29,0.04,0.89,0.00,34.35,37.04,39.50,13.38,46.03,1016.13,1983.52,2992.94,2782.48,3190.81,600.17,573.85,26.30,0000 0000 0000 0000 000000
2018-05-23 05:58:30,0.03,0.89,0.00,34.37,37.08,39.53,13.26,45.76,1016.13,1983.09,2991.86,2781.42,3189.69,599.80,573.53,26.35,0000 0000 0000 0000 000000
2018-05-23 06:03:31,0.04,0.89,0.00,34.41,37.12,39.58,13.40,45.95,1016.05,1983.00,2990.87,2780.74,3188.79,600.26,573.79,26.40,0000 0000 0000 0000 000000
2018-05-23 06:08:32,0.04,0.90,0.00,34.44,37.16,39.62,13.30,45.98,1015.91,1982.99,2989.95,2780.00,3187.96,599.83,573.36,26.45,0000 0000 0000 0000 000000
2018-05-23 06:13:33,0.04,0.90,0.00,34.44,37.20,39.67,13.30,45.92,1015.95,1982.81,2989.02,2779.17,3187.04,599.94,573.49,26.50,0000 0000 0000 0000 000000
2018-05-23 06:18:34,-0.00,0.90,0.00,34.47,37.24,39.69,13.31,45.78,1015.91,1982.18,2988.05,2778.44,3186.13,600.09,573.57,26.55,0000 0000 0000 0000 000000
2018-05-23 06:23:36,0.04,0.90,0.00,34.50,37.27,39.72,13.33,45.78,1015.85,1982.02,2987.10,2777.77,3185.32,600.31,573.60,26.60,0000 0000 0000 0000 000000
2018-05-23 06:28:37,0.07,0.90,0.00,34.51,37.31,39.76,13.26,45.93,1015.80,1982.00,2985.52,2776.91,3184.28,599.86,573.19,26.65,0000 0000 0000 0000 000000
2018-05-23 06:33:39,0.05,0.91,0.00,34.54,37.34,39.80,13.40,45.95,1015.70,1982.00,2984.34,2776.09,3183.42,600.04,573.27,26.70,0000 0000 0000 0000 000000
2018-05-23 06:38:40,0.05,0.91,0.00,34.56,37.37,39.83,13.37,46.12,1015.68,1981.99,2983.32,2775.42,3182.55,600.15,573.27,26.75,0000 0000 0000 0000 000000
2018-05-23 06:43:41,0.03,0.91,0.00,34.57,37.40,39.87,13.33,45.97,1015.68,1981.90,2982.37,2774.80,3181.78,599.87,572.93,26.80,0000 0000 0000 0000 000000
2018-05-23 06:48:42,0.01,0.91,0.00,34.59,37.43,39.89,13.37,45.96,1015.69,1981.63,2981.51,2774.05,3181.04,600.39,573.37,26.85,0000 0000 0000 0000 000000
2018-05-23 06:53:44,0.01,0.91,0.00,34.63,37.45,39.93,13.35,45.93,1015.76,1981.23,2980.70,2773.47,3180.30,600.18,573.19,26.90,0000 0000 0000 0000 000000
2018-05-23 06:58:45,0.02,0.91,0.00,34.64,37.48,39.96,13.33,45.89,1015.86,1981.00,2979.99,2772.94,3179.54,600.05,573.13,26.95,0000 0000 0000 0000 000000
2018-05-23 07:03:46,0.05,0.92,0.00,34.65,37.50,39.98,13.26,45.84,1015.84,1981.00,2979.16,2772.14,3178.77,599.83,572.86,27.00,0000 0000 0000 0000 000000
2018-05-23 07:08:47,0.05,0.92,0.00,34.69,37.52,39.99,13.30,45.86,1016.02,1980.99,2978.12,2771.56,3177.94,600.01,572.99,27.05,0000 0000 0000 0000 000000
2018-05-23 07:13:49,0.03,0.92,0.00,34.70,37.54,40.03,13.33,45.84,1016.11,1980.93,2977.14,2770.98,3177.13,599.97,573.09,27.10,0000 0000 0000 0000 000000
2018-05-23 07:18:50,0.05,0.92,0.00,34.70,37.56,40.06,13.28,45.79,1016.11,1980.86,2976.36,2770.25,3176.45,599.68,572.82,27.15,0000 0000 0000 0000 000000
2018-05-23 07:23:51,0.00,0.92,0.00,34.72,37.59,40.08,13.37,45.82,1016.09,1980.57,2975.53,2769.80,3175.88,599.77,572.79,27.20,0000 0000 0000 0000 000000
2018-05-23 07:28:52,0.02,0.92,0.00,34.74,37.61,40.09,13.33,45.76,1016.13,1980.14,2974.54,2769.04,3175.04,599.94,573.03,27.25,0000 0000 0000 0000 000000
2018-05-23 07:33:54,0.04,0.93,0.00,34.75,37.63,40.12,13.39,45.62,1016.12,1980.09,2973.75,2768.51,3174.26,600.33,573.35,27.30,0000 0000 0000 0000 000000
2018-05-23 07:38:55,0.03,0.93,0.00,34.76,37.65,40.14,13.29,45.75,1016.13,1980.02,2972.86,2767.98,3173.62,599.88,572.97,27.35,0000 0000 0000 0000 000000
2018-05-23 07:43:57,0.05,0.93,0.00,34.79,37.68,40.18,13.33,45.82,1016.13,1980.00,2971.99,2767.25,3172.93,599.95,572.98,27.40,0000 0000 0000 0000 000000
2018-05-23 07:48:57,0.05,0.93,0.00,34.79,37.70,40.19,13.30,45.75,1016.13,1980.00,2971.03,2766.61,3172.07,599.94,572.88,27.45,0000 0000 0000 0000 000000
2018-05-23 07:53:59,0.04,0.94,0.00,34.80,37.72,40.21,13.31,45.69,1016.13,1980.00,2970.12,2765.99,3171.28,600.12,573.04,27.50,0000 0000 0000 0000 000000
2018-05-23 07:59:00,0.04,0.94,0.00,34.83,37.74,40.24,13.30,45.63,1016.13,1979.97,2969.28,2765.37,3170.80,600.15,573.01,27.55,0000 0000 0000 0000 000000
2018-05-23 08:04:01,0.02,0.94,0.00,34.84,37.75,40.25,13.34,45.83,1016.13,1979.90,2968.54,2764.91,3170.04,599.96,572.85,27.60,0000 0000 0000 0000 000000
2018-05-23 08:09:02,0.04,0.94,0.00,34.83,37.77,40.27,13.34,45.80,1016.13,1979.78,2967.70,2764.17,3169.31,600.06,572.87,27.65,0000 0000 0000 0000 000000
2018-05-23 08:14:04,0.01,0.94,0.00,34.84,37.78,40.28,13.34,45.60,1016.14,1979.60,2966.92,2763.90,3168.80,600.20,573.15,27.70,0000 0000 0000 0000 000000
2018-05-23 08:19:05,0.03,0.94,0.00,34.85,37.80,40.30,13.34,45.63,1016.14,1979.40,2966.06,2763.09,3168.04,600.37,573.24,27.75,0000 0000 0000 0000 000000
2018-05-23 08:24:06,0.02,0.94,0.00,34.83,37.82,40.31,13.33,45.65,1016.16,1979.13,2965.19,2762.62,3167.30,600.29,573.18,27.80,0000 0000 0000 0000 000000
2018-05-23 08:29:07,0.03,0.95,0.00,34.82,37.83,40.33,13.29,45.82,1016.29,1979.04,2964.28,2762.01,3166.71,600.04,572.96,27.85,0000 0000 0000 0000 000000
2018-05-23 08:34:08,0.04,0.95,0.00,34.82,37.85,40.35,13.37,45.59,1016.31,1979.02,2963.64,2761.49,3166.02,600.00,572.98,27.90,0000 0000 0000 0000 000000
2018-05-23 08:39:10,0.03,0.95,0.00,34.81,37.85,40.36,13.22,45.73,1016.46,1979.00,2962.88,2760.99,3165.31,599.71,572.88,27.95,0000 0000 0000 0000 000000
2018-05-23 08:44:12,0.05,0.95,0.00,34.80,37.87,40.37,13.32,45.77,1016.57,1979.00,2962.04,2760.27,3164.75,600.00,573.19,28.00,0000 0000 0000 0000 000000
2018-05-23 08:49:13,0.02,0.95,0.00,34.80,37.88,40.39,13.30,45.64,1016.55,1979.00,2961.21,2759.96,3164.07,600.12,573.16,28.05,0000 0000 0000 0000 000000
2018-05-23 08:54:15,0.05,0.96,0.00,34.79,37.90,40.40,13.34,45.64,1016.58,1979.00,2960.43,2759.19,3163.46,599.87,573.07,28.10,0000 0000 0000 0000 000000
2018-05-23 08:59:16,0.04,0.96,0.00,34.79,37.90,40.41,13.38,45.77,1016.56,1978.99,2959.58,2758.74,3162.76,600.18,573.36,28.15,0000 0000 0000 0000 000000
2018-05-23 09:04:17,0.03,0.96,0.00,34.80,37.91,40.42,13.33,45.70,1016.60,1978.98,2958.76,2758.04,3162.03,600.01,573.25,28.20,0000 0000 0000 0000 000000
2018-05-23 09:09:18,0.04,0.96,0.00,34.80,37.93,40.42,13.36,45.80,1016.60,1978.97,2957.97,2757.69,3161.52,600.32,573.40,28.25,0000 0000 0000 0000 000000
2018-05-23 09:14:19,0.03,0.96,0.00,34.80,37.93,40.44,13.34,45.77,1016.62,1978.92,2956.95,2757.02,3160.83,600.12,573.18,28.30,0000 0000 0000 0000 000000
2018-05-23 09:19:21,0.05,0.97,0.00,34.80,37.94,40.45,13.26,45.67,1016.62,1978.89,2956.03,2756.40,3160.06,599.90,573.17,28.35,0000 0000 0000 0000 000000
2018-05-23 09:24:22,0.03,0.97,0.00,34.79,37.95,40.44,13.31,45.65,1016.62,1978.89,2955.24,2755.98,3159.67,599.84,573.05,28.40,0000 0000 0000 0000 000000
2018-05-23 09:29:23,0.01,0.97,0.00,34.80,37.95,40.45,13.26,45.60,1016.62,1978.60,2954.38,2755.26,3158.89,599.69,572.94,28.45,0000 0000 0000 0000 000000
2018-05-23 09:34:24,0.03,0.97,0.00,34.82,37.97,40.46,13.23,45.77,1016.62,1978.47,2953.70,2754.89,3158.12,600.00,573.16,28.50,0000 0000 0000 0000 000000
2018-05-23 09:39:25,0.03,0.97,0.00,34.84,37.98,40.46,13.32,45.66,1016.62,1978.25,2952.79,2754.11,3157.49,599.97,573.14,28.55,0000 0000 0000 0000 000000
2018-05-23 09:44:26,0.02,0.97,0.00,34.84,37.98,40.47,13.28,45.67,1016.62,1978.16,2951.96,2753.68,3156.97,599.54,572.74,28.60,0000 0000 0000 0000 000000
2018-05-23 09:49:27,0.04,0.98,0.00,34.82,37.99,40.47,13.36,45.65,1016.62,1978.16,2951.02,2753.02,3156.14,600.35,573.33,28.65,0000 0000 0000 0000 000000
2018-05-23 09:54:29,0.07,0.98,0.00,34.82,38.00,40.48,13.35,45.63,1016.62,1978.14,2950.00,2752.35,3155.40,599.74,572.87,28.70,0000 0000 0000 0000 000000
2018-05-23 09:59:30,0.02,0.98,0.00,34.80,38.00,40.48,13.32,45.67,1016.62,1978.18,2949.09,2751.99,3154.94,600.05,573.29,28.75,0000 0000 0000 0000 000000
2018-05-23 10:04:31,0.05,0.98,0.00,34.79,38.00,40.49,13.44,45.73,1016.62,1978.13,2948.24,2751.35,3154.13,600.07,573.30,28.80,0000 0000 0000 0000 000000
2018-05-23 10:09:33,0.02,0.98,0.00,34.78,38.01,40.50,13.36,45.70,1016.62,1978.11,2947.60,2751.00,3153.78,600.00,573.27,28.85,0000 0000 0000 0000 000000
2018-05-23 10:14:34,0.03,0.99,0.00,34.77,38.02,40.50,13.27,45.58,1016.62,1978.05,2946.79,2750.55,3153.05,599.84,573.11,28.90,0000 0000 0000 0000 000000
2018-05-23 10:19:36,0.03,0.99,0.00,34.76,38.03,40.50,13.37,45.85,1016.62,1978.01,2946.04,2750.02,3152.39,599.97,573.12,28.95,0000 0000 0000 0000 000000
2018-05-23 10:24:37,0.04,0.99,0.00,34.75,38.03,40.51,13.33,45.63,1016.62,1978.00,2945.16,2749.42,3151.96,600.13,573.35,29.00,0000 0000 0000 0000 000000
2018-05-23 10:29:38,0.03,0.99,0.00,34.73,38.03,40.50,13.29,45.62,1016.62,1978.01,2944.56,2749.01,3151.23,599.82,573.13,29.05,0000 0000 0000 0000 000000
2018-05-23 10:34:40,0.03,0.99,0.00,34.71,38.03,40.52,13.28,45.76,1016.62,1978.00,2943.85,2748.59,3150.87,600.03,573.36,29.10,0000 0000 0000 0000 000000
2018-05-23 10:39:41,0.03,1.00,0.00,34.70,38.03,40.51,13.32,45.68,1016.62,1978.00,2943.05,2748.03,3150.11,600.15,573.53,29.15,0000 0000 0000 0000 000000
2018-05-23 10:44:43,0.03,1.00,0.00,34.66,38.03,40.52,13.34,45.59,1016.62,1978.01,2942.28,2747.70,3149.73,600.08,573.54,29.20,0000 0000 0000 0000 000000
2018-05-23 10:49:44,0.03,1.00,0.00,34.63,38.03,40.53,13.39,45.77,1016.62,1978.00,2941.59,2747.04,3149.03,599.94,573.50,29.25,0000 0000 0000 0000 000000
2018-05-23 10:54:45,0.03,1.00,0.00,34.61,38.03,40.53,13.40,45.71,1016.62,1978.00,2940.85,2746.78,3148.64,600.51,574.04,29.30,0000 0000 0000 0000 000000
2018-05-23 10:59:46,0.03,1.00,0.00,34.55,38.03,40.53,13.40,45.63,1016.62,1978.00,2940.03,2746.07,3148.02,600.23,573.85,29.35,0000 0000 0000 0000 000000
2018-05-23 11:04:47,0.03,1.00,0.00,34.51,38.02,40.54,13.42,45.80,1016.62,1978.02,2939.30,2745.90,3147.54,600.13,573.78,29.40,0000 0000 0000 0000 000000
2018-05-23 11:09:49,0.04,1.01,0.00,34.47,38.00,40.54,13.38,45.83,1016.62,1978.00,2938.48,2745.14,3147.00,599.89,573.74,29.45,0000 0000 0000 0000 000000
2018-05-23 11:14:50,0.02,1.01,0.00,34.42,38.00,40.55,13.40,45.85,1016.62,1978.01,2937.85,2744.98,3146.44,599.85,573.75,29.51,0000 0000 0000 0000 000000
2018-05-23 11:19:52,0.04,1.01,0.00,34.36,37.99,40.55,13.39,45.67,1016.62,1978.00,2937.03,2744.38,3145.96,600.08,574.15,29.56,0000 0000 0000 0000 000000
2018-05-23 11:24:53,0.03,1.01,0.00,34.32,37.98,40.55,13.39,45.69,1016.62,1978.00,2936.19,2744.00,3145.30,599.93,573.87,29.61,0000 0000 0000 0000 000000
2018-05-23 11:29:54,0.02,1.01,0.00,34.27,37.95,40.58,13.40,45.79,1016.62,1978.02,2935.69,2743.74,3145.00,599.88,574.03,29.66,0000 0000 0000 0000 000000
2018-05-23 11:34:56,0.04,1.02,0.00,34.22,37.94,40.58,13.39,45.75,1016.61,1978.09,2935.00,2743.07,3144.62,600.11,574.43,29.71,0000 0000 0000 0000 000000
2018-05-23 11:39:57,0.04,1.02,0.00,34.18,37.92,40.64,13.36,45.73,1016.61,1978.18,2934.17,2742.89,3144.03,599.74,574.16,29.76,0000 0000 0000 0000 000000
2018-05-23 11:44:58,0.05,1.02,0.00,34.14,37.90,40.68,13.37,45.83,1016.62,1978.24,2933.57,2742.12,3143.50,599.50,573.86,29.81,0000 0000 0000 0000 000000
2018-05-23 11:50:00,0.04,1.02,0.00,34.10,37.88,40.65,13.38,45.84,1016.62,1978.53,2932.97,2741.99,3143.02,599.87,574.41,29.86,0000 0000 0000 0000 000000
2018-05-23 11:55:01,0.05,1.03,0.00,34.06,37.85,40.61,13.39,45.86,1016.62,1978.82,2932.24,2741.86,3142.93,599.97,574.54,29.91,0000 0000 0000 0000 000000
2018-05-23 12:00:02,0.04,1.03,0.00,34.01,37.83,40.59,13.42,45.88,1016.62,1978.94,2931.79,2741.18,3142.30,600.12,574.91,29.96,0000 0000 0000 0000 000000
2018-05-23 12:05:04,0.02,1.03,0.00,33.96,37.80,40.55,13.47,45.82,1016.62,1978.97,2931.04,2741.00,3142.00,600.36,575.07,30.01,0000 0000 0000 0000 000000
2018-05-23 12:10:05,0.04,1.03,0.00,33.92,37.78,40.53,13.42,45.83,1016.62,1978.99,2930.36,2740.70,3141.52,599.97,574.81,30.06,0000 0000 0000 0000 000000
2018-05-23 12:15:06,0.02,1.03,0.00,33.89,37.75,40.49,13.39,45.98,1016.61,1978.99,2929.92,2740.14,3141.04,599.73,574.59,30.11,0000 0000 0000 0000 000000
2018-05-23 12:20:07,0.01,1.03,0.00,33.83,37.73,40.45,13.45,45.94,1016.58,1979.01,2929.15,2740.01,3141.00,600.41,575.09,30.16,0000 0000 0000 0000 000000
2018-05-23 12:25:09,0.02,1.04,0.00,33.79,37.69,40.42,13.40,46.02,1016.58,1979.09,2928.80,2739.98,3140.70,600.03,575.08,30.21,0000 0000 0000 0000 000000
2018-05-23 12:30:10,0.06,1.04,0.00,33.73,37.66,40.37,13.47,46.02,1016.56,1979.36,2928.11,2739.70,3140.22,599.94,575.10,30.26,0000 0000 0000 0000 000000
2018-05-23 12:35:11,0.06,1.04,0.00,33.68,37.63,40.34,13.42,46.08,1016.55,1979.69,2927.64,2739.09,3140.00,599.74,575.00,30.31,0000 0000 0000 0000 000000
2018-05-23 12:40:12,0.03,1.04,0.00,33.65,37.60,40.31,13.45,46.08,1016.50,1979.96,2926.98,2739.00,3139.71,600.23,575.49,30.36,0000 0000 0000 0000 000000
2018-05-23 12:45:14,0.02,1.05,0.00,33.62,37.57,40.27,13.45,46.04,1016.41,1979.99,2926.25,2738.89,3139.11,599.92,575.13,30.41,0000 0000 0000 0000 000000
2018-05-23 12:50:15,0.02,1.05,0.00,33.56,37.54,40.23,13.49,45.98,1016.31,1979.99,2925.91,2738.44,3139.00,600.30,575.62,30.46,0000 0000 0000 0000 000000
2018-05-23 12:55:16,0.02,1.05,0.00,33.52,37.50,40.19,13.45,45.85,1016.25,1980.00,2925.14,2738.02,3138.74,600.43,575.78,30.51,0000 0000 0000 0000 000000